Location: *
(51.8167°N, 12.5000°E)
Time: 19:37:12
(UTC+00:00)

Cosmos 1805 - Pass Details

Date: 16 September 2019
Orbit: 525 x 532 km, 82.5° (Epoch: 16 October)

Event Time Altitude Azimuth Distance (km) Brightness Sun altitude
Exits shadow 20:16:28 54° 343° (NNW) 651 3.9 -25.1°
Drops below altitude 10° 20:19:38 10° 7° (N) 1,786 6.3 -25.4°
Sets 20:21:48 0° 10° (N) 2,680 7.3 -25.7°
